[[{"header":{"parameterUnit":"m.s-1","parameterCategory":1,"la1":30.2992,"la2":30.254,"lo1":-89.0895,"lo2":-89.0443,"dy":0.0025,"dx":0.0025,"nx":19,"ny":19,"refTime":"2026-05-13T21:00:00:Z","depth":0,"parameterNumber":2,"parameterNumberName":"U-component_of_WINDS"},"data":[0,0,0,-2.8936,-2.8936,-2.895,-2.895,-2.8976,-2.8976,0,0,0,0,0,0,0,0,0,0,0,-2.8936,-2.8936,-2.8936,-2.8936,-2.895,-2.895,-2.8976,-2.8976,0,0,0,0,0,0,0,0,0,0,0,-2.8936,-2.8936,-2.8936,-2.8936,-2.895,-2.895,-2.8976,-2.8963,0,0,0,0,0,0,0,0,0,0,-2.8947,-2.8951,-2.8936,-2.8936,-2.8936,-2.895,-2.895,-2.8962,-2.8963,-2.8973,0,-2.8982,0,-2.898,-2.8979,-2.8979,0,0,0,-2.8933,-2.895,-2.895,-2.8936,-2.8937,-2.895,-2.8943,-2.8963,-2.8964,-2.8975,-2.8982,-2.8983,-2.898,-2.8979,-2.8979,-2.9043,-2.9043,0,0,-2.8932,-2.894,-2.8949,-2.8952,-2.895,-2.8943,-2.8944,-2.8964,-2.8972,-2.8982,-2.8984,-2.8981,-2.8979,-2.8979,-2.9042,-2.9043,0,0,0,-2.8932,-2.894,-2.8939,-2.8951,-2.8953,-2.8943,-2.8944,-2.8971,-2.897,-2.8984,-2.8981,-2.8979,-2.898,-2.9042,-2.9043,-2.9072,0,0,0,-2.8931,-2.894,-2.8939,-2.8945,-2.8953,-2.8962,-2.8952,-2.8969,-2.8971,-2.8981,-2.8979,-2.898,-2.9041,-2.9042,-2.907,-2.9083,0,0,0,-2.8933,-2.894,-2.8944,-2.8945,-2.8951,-2.8962,-2.8962,-2.8969,-2.897,-2.8979,-2.898,-2.9041,-2.9042,-2.9068,-2.908,-2.9101,0,0,0,-2.8938,-2.897,-2.8944,-2.8979,-2.8951,-2.898,-2.8962,-2.8983,-2.8994,-2.8979,-2.9041,-2.9043,-2.9067,-2.9079,-2.91,-2.9119,-2.9128,0,0,-2.8982,-2.8975,-2.8995,-2.8973,-2.9008,-2.8977,-2.9017,-2.902,-2.9013,-2.9033,-2.9035,-2.907,-2.908,-2.9101,-2.9181,-2.9189,0,0,0,-2.9012,-2.9026,-2.9034,-2.9045,-2.9049,-2.9052,-2.9048,-2.905,-2.9066,-2.9025,-2.9084,-2.909,-2.9102,-2.911,-2.9117,-2.9126,-2.9048,-2.9047,-2.9047,-2.9086,-2.9076,-2.9108,-2.9101,-2.9112,-2.9108,-2.9117,-2.9118,-2.9105,-2.9119,-2.9124,-2.9174,-2.9185,-2.9189,-2.9199,-2.9135,-2.9135,-2.9136,-2.9136,-2.9149,-2.9167,-2.915,-2.9174,-2.9165,-2.9185,-2.9184,-2.9174,-2.9191,-2.9169,-2.9179,-2.9154,-2.9198,-2.9205,-2.9138,-2.9137,-2.9137,-2.9137,-2.9137,-2.9194,-2.9201,-2.9203,-2.9218,-2.9232,-2.9224,-2.9242,-2.9233,-2.9224,-2.9234,-2.9238,-2.9237,-2.9234,-2.9237,-2.9237,-2.9237,-2.9237,-2.9238,-2.9238,-2.9239,-2.924,-2.9256,-2.9264,-2.927,-2.9277,-2.9275,-2.9281,-2.9285,-2.9277,-2.9277,-2.9262,-2.9205,-2.9189,-2.924,-2.924,-2.9239,-2.9239,-2.9239,-2.9303,-2.9288,-2.9312,-2.9319,-2.9326,-2.934,-2.9329,-2.9342,-2.9346,-2.9355,-2.9339,-2.9299,-2.9291,-2.9286,-2.9272,-2.9342,-2.9342,-2.9342,-2.9342,-2.934,-2.9335,-2.9358,-2.9369,-2.9379,-2.9372,-2.94,-2.9399,-2.9396,-2.9397,-2.9387,-2.937,-2.9365,-2.9359,-2.9353,-2.934,-2.9425,-2.9425,-2.9425,-2.9377,-2.9374,-2.9399,-2.9396,-2.9402,-2.9407,-2.9433,-2.9446,-2.9439,-2.9429,-2.9398,-2.9395,-2.9367,-2.9359,-2.9345,-2.9335,-2.9312,0,0]},{"header":{"parameterUnit":"m.s-1","parameterCategory":1,"la1":30.2992,"la2":30.254,"lo1":-89.0895,"lo2":-89.0443,"dy":0.0025,"dx":0.0025,"nx":19,"ny":19,"refTime":"2026-05-13T21:00:00:Z","depth":0,"parameterNumber":3,"parameterNumberName":"V-component_of_WINDS"},"data":[0,0,0,3.6326,3.6326,3.6341,3.6341,3.6353,3.6353,0,0,0,0,0,0,0,0,0,0,0,3.6319,3.6319,3.6326,3.6326,3.6341,3.6341,3.6353,3.6353,0,0,0,0,0,0,0,0,0,0,0,3.6319,3.6319,3.6319,3.6326,3.6341,3.6341,3.6353,3.6344,0,0,0,0,0,0,0,0,0,0,3.6331,3.6322,3.6319,3.6319,3.6326,3.6341,3.6341,3.6343,3.6344,3.6344,0,3.6344,0,3.6349,3.6353,3.6353,0,0,0,3.6328,3.6321,3.6328,3.6319,3.6327,3.6341,3.6335,3.6344,3.6345,3.6345,3.6344,3.6344,3.6349,3.6353,3.6353,3.635,3.635,0,0,3.6327,3.6319,3.6327,3.6328,3.6327,3.6334,3.6335,3.6345,3.6342,3.6344,3.6345,3.6349,3.6353,3.6353,3.635,3.635,0,0,0,3.6324,3.6319,3.6325,3.6328,3.6331,3.6335,3.6336,3.6342,3.6345,3.6345,3.6349,3.6353,3.6354,3.635,3.635,3.6339,0,0,0,3.6323,3.6317,3.6325,3.632,3.6331,3.6337,3.6333,3.6344,3.6346,3.6349,3.6353,3.6354,3.635,3.635,3.634,3.6335,0,0,0,3.6319,3.6316,3.6318,3.632,3.6326,3.6337,3.634,3.6345,3.6348,3.6353,3.6354,3.635,3.635,3.634,3.6336,3.6333,0,0,0,3.6311,3.6306,3.6317,3.6313,3.6326,3.6331,3.634,3.6344,3.6347,3.6353,3.635,3.635,3.634,3.6336,3.6333,3.6329,3.6327,0,0,3.63,3.6304,3.6303,3.6313,3.6315,3.6329,3.6328,3.6337,3.6343,3.6347,3.6347,3.634,3.6336,3.6333,3.6316,3.6314,0,0,0,3.6297,3.6295,3.6297,3.6302,3.631,3.6317,3.6328,3.6331,3.6335,3.6344,3.6338,3.6336,3.6334,3.6333,3.6331,3.6331,3.6349,3.6349,3.6349,3.6269,3.628,3.6278,3.6292,3.6296,3.6308,3.6312,3.6319,3.6326,3.6325,3.6326,3.6315,3.6312,3.6311,3.6311,3.6325,3.6325,3.6325,3.6325,3.6254,3.6254,3.6268,3.6272,3.6283,3.6285,3.6298,3.6304,3.6307,3.6314,3.6313,3.632,3.6309,3.6309,3.6324,3.6324,3.6324,3.6324,3.6324,3.6237,3.6239,3.6246,3.6255,3.6261,3.6274,3.6278,3.6287,3.6296,3.6295,3.6298,3.6298,3.63,3.6296,3.6296,3.6296,3.6296,3.6296,3.6296,3.6217,3.6225,3.6228,3.6239,3.6244,3.6252,3.6266,3.6271,3.6279,3.6286,3.6286,3.6294,3.6306,3.6309,3.6296,3.6296,3.6296,3.6296,3.6296,3.6197,3.6204,3.6209,3.6215,3.6229,3.6235,3.6248,3.6258,3.6263,3.6265,3.6275,3.6282,3.6286,3.6287,3.629,3.6272,3.6272,3.6272,3.6272,3.6183,3.6187,3.6196,3.6204,3.6214,3.6227,3.6232,3.6244,3.6256,3.626,3.6264,3.6269,3.627,3.6273,3.6275,3.6277,3.6257,3.6257,3.6257,3.6172,3.6178,3.6181,3.6196,3.6209,3.6219,3.6225,3.6233,3.6248,3.6256,3.6264,3.6265,3.6272,3.6273,3.628,3.6282,3.6287,0,0]}]]